Wind_Speed
33 32 30 29 28 28 27 26 26 25 24 24 23 23 22 22 22 22 22 23 23 24 25 26 26 27 28 29 30 32 33 34 35 35 35 35 34 34 33 32 31 31 30
35 33 32 31 30 29 29 28 28 27 27 26 25 25 25 25 25 25 25 26 26 27 28 28 29 30 31 32 33 34 35 36 36 36 36 36 35 34 34 33 32 31 30
36 35 34 33 32 31 30 30 30 29 29 29 28 27 27 27 27 28 28 29 29 30 30 31 32 33 34 34 35 36 37 37 37 37 37 36 36 35 34 34 33 32 31
38 36 35 34 33 32 32 31 31 31 30 30 29 29 29 29 29 30 30 31 32 32 33 34 34 35 36 37 37 38 38 39 39 38 37 36 36 36 35 34 34 32 32
39 37 37 36 35 34 33 33 32 32 31 31 31 31 31 31 32 32 33 33 34 35 35 36 36 37 38 38 39 39 40 40 39 38 37 37 36 36 35 35 34 33 33
40 39 38 37 36 35 35 34 34 33 33 33 33 33 33 33 33 34 34 35 35 36 37 38 38 39 39 40 41 41 41 40 39 38 38 37 37 36 36 35 35 34 34
42 41 39 38 36 36 36 36 36 35 35 34 34 34 34 35 35 35 35 36 37 37 38 39 39 40 41 41 41 42 41 40 39 39 39 38 38 37 37 37 36 36 35
43 42 41 40 38 37 37 37 37 37 36 35 35 35 35 35 35 36 36 37 38 39 39 40 40 41 42 42 42 42 42 41 41 40 40 39 39 38 38 38 37 36 35
41 40 40 39 38 37 37 37 37 37 37 37 36 36 36 36 36 36 38 39 40 41 41 41 42 42 42 42 42 42 42 43 43 42 42 41 41 40 40 39 38 37 36
39 39 39 39 38 38 38 38 38 38 38 37 37 37 38 38 37 37 38 39 41 41 42 42 43 43 43 44 44 44 44 44 44 44 44 43 43 42 41 40 39 38 36
42 41 40 40 40 41 41 40 39 39 38 38 38 38 38 38 39 39 39 40 41 41 42 43 44 44 45 45 46 46 46 46 46 46 46 45 44 43 42 41 40 38 36
45 44 44 43 43 43 42 41 39 39 38 38 38 38 38 38 39 40 40 40 41 42 43 44 45 46 47 47 48 48 48 48 48 47 47 46 45 44 42 41 40 38 36
43 43 44 45 44 43 42 41 40 39 38 37 38 38 38 38 39 40 41 42 43 44 45 46 47 48 48 48 48 48 48 48 48 47 46 45 45 44 42 41 39 37 35
38 38 40 40 41 41 40 39 39 37 37 38 38 38 39 40 41 42 43 44 45 45 46 46 47 47 48 48 48 48 47 47 46 46 45 44 43 42 41 39 37 36 34
38 38 37 37 38 38 39 38 38 38 38 38 38 39 40 41 42 42 43 44 45 45 46 46 47 47 48 48 48 47 47 46 45 44 44 43 42 40 39 37 36 35 33
38 38 38 38 38 38 38 39 39 39 39 39 40 41 41 42 43 43 44 45 46 46 46 46 46 46 47 47 47 46 45 44 43 42 41 40 39 38 36 35 34 33 32
37 38 38 38 38 39 40 40 41 40 40 41 41 41 42 43 44 44 45 45 45 46 45 45 44 45 45 45 45 44 44 43 42 40 40 38 37 35 34 33 33 32 30
38 38 39 40 39 40 41 42 42 42 42 42 42 42 43 44 44 44 44 44 45 45 44 44 44 44 44 44 43 43 42 41 40 39 38 36 35 34 33 32 30 29 28
41 41 42 42 42 42 43 43 43 44 44 44 43 43 44 44 43 43 44 44 44 44 44 43 43 43 43 42 42 41 40 38 37 36 35 34 33 31 31 30 29 28 27
44 44 44 44 45 45 45 45 45 45 44 44 44 43 43 43 43 43 43 43 43 43 42 42 42 42 41 41 40 39 38 36 35 35 34 32 31 29 29 28 27 26 26
46 46 46 45 45 45 45 45 44 44 44 44 43 43 43 42 42 42 42 42 42 41 41 41 41 40 40 39 38 37 36 35 34 32 31 30 28 27 26 26 26 25 25
48 47 47 46 46 45 45 45 45 45 44 44 44 43 43 42 42 42 42 41 41 40 40 40 40 39 38 37 36 35 33 33 31 30 29 28 27 27 26 25 25 25 25
49 49 49 48 47 47 47 46 46 46 45 44 44 43 43 42 42 41 40 40 40 39 39 39 38 37 36 34 33 32 31 30 29 28 28 28 27 26 25 25 25 25 25
51 51 50 50 49 49 48 48 47 46 45 45 44 43 42 42 41 40 40 39 39 38 38 37 36 35 33 32 30 30 29 28 28 27 26 26 26 25 25 25 25 25 25
51 51 51 50 50 49 49 48 47 46 46 45 43 43 42 40 40 39 39 38 38 37 36 35 33 32 31 30 29 28 28 27 27 26 25 25 25 24 24 24 25 25 25
50 50 49 49 49 49 48 48 47 46 45 44 42 42 41 40 39 39 38 37 37 36 35 33 32 31 30 30 29 28 28 27 26 25 25 24 24 23 24 24 25 25 26
Wind_Direction
231 232 234 236 237 240 242 244 246 248 250 253 255 258 261 264 267 270 273 276 279 282 285 288 291 294 297 299 302 304 307 308 310 311 312 312 312 311 311 310 309 309 309
231 232 234 236 238 240 242 244 246 248 250 253 255 258 261 265 268 271 274 277 279 282 285 287 290 292 295 298 300 302 305 306 307 309 309 309 309 309 309 308 307 306 306
230 233 235 236 238 240 243 246 248 249 251 253 256 258 262 265 269 272 274 277 280 282 285 287 290 292 294 297 299 301 303 305 306 307 307 307 307 307 307 306 306 304 304
231 233 235 237 240 242 244 246 248 250 252 255 258 260 263 266 268 271 275 277 280 283 285 287 290 292 294 296 298 300 302 304 305 305 304 304 304 304 304 304 303 301 301
230 232 235 239 241 243 245 247 250 252 254 257 260 262 265 267 270 272 276 278 281 283 285 287 289 292 294 295 297 298 300 302 302 302 301 301 302 302 301 300 300 299 299
231 233 236 239 242 245 247 249 251 254 257 259 261 264 266 269 271 274 277 279 282 283 285 287 289 292 293 295 296 297 298 299 299 299 299 299 299 299 298 298 297 297 296
232 234 236 239 243 246 249 251 254 256 257 260 262 265 267 270 273 275 278 280 282 284 286 288 289 291 292 294 295 296 297 296 297 297 297 297 296 296 295 295 295 294 293
233 236 238 241 245 248 250 253 255 257 258 261 263 265 268 270 273 276 279 282 283 284 286 288 290 291 292 293 294 295 295 295 295 295 295 295 294 293 293 292 292 292 290
238 240 242 244 245 249 251 253 255 258 260 261 263 267 270 271 274 277 280 282 283 285 286 288 289 291 292 293 294 295 295 295 294 293 293 293 292 292 291 290 290 289 287
238 241 243 245 247 249 251 253 256 259 261 263 265 268 270 273 276 278 280 282 284 285 287 288 289 290 291 293 293 293 293 293 293 292 291 291 291 290 288 287 287 286 284
241 242 244 246 249 251 252 254 257 259 262 264 266 269 271 274 277 279 281 282 283 285 286 287 288 289 291 292 292 292 291 291 291 291 290 289 288 287 286 285 284 283 282
242 244 246 248 250 252 253 255 256 258 262 265 267 269 271 274 278 280 282 283 285 286 287 287 288 289 290 291 291 291 291 290 289 289 288 287 287 286 284 283 282 281 279
243 245 247 248 249 252 253 255 257 260 263 266 268 270 272 276 279 282 283 284 286 287 288 288 289 290 291 291 291 291 290 289 288 288 288 287 286 285 283 281 281 279 276
245 248 249 249 251 253 255 258 261 262 264 267 270 273 276 279 281 283 284 285 286 287 288 288 289 290 291 291 291 290 289 289 288 288 287 286 285 284 283 280 278 276 274
250 252 253 253 254 255 257 259 262 263 266 269 273 276 278 280 282 284 285 286 286 287 288 289 290 290 290 290 290 290 290 289 289 288 287 285 284 283 282 278 276 274 271
253 253 255 257 258 258 259 260 264 266 269 272 275 277 279 281 283 284 285 286 287 288 289 290 290 290 290 290 290 290 290 289 288 287 286 284 283 281 279 276 274 271 267
255 256 257 258 259 261 263 265 267 269 272 274 276 278 280 282 283 284 285 286 287 288 289 289 289 289 289 290 290 290 290 288 287 286 285 283 281 279 277 274 272 269 264
256 258 258 259 261 263 264 266 267 269 272 274 276 278 280 281 283 284 284 286 287 287 287 287 288 288 288 289 290 290 289 287 286 285 284 282 280 277 274 272 269 266 263
258 258 260 261 262 263 264 265 266 269 271 274 276 277 278 280 282 283 284 285 286 286 286 286 287 288 289 289 289 288 287 286 284 283 282 280 278 275 272 270 268 264 261
260 261 262 262 263 263 265 266 267 269 271 273 274 276 277 278 280 282 283 284 285 285 285 286 287 288 289 289 288 287 286 284 282 281 279 277 276 274 271 269 266 263 260
261 261 262 263 264 265 265 266 267 269 270 271 272 274 275 277 279 281 282 283 284 284 285 286 288 289 289 288 287 286 285 283 281 279 277 275 273 272 270 267 265 262 259
261 261 261 262 263 264 264 265 266 267 269 270 271 273 274 276 278 280 281 282 283 284 285 287 288 288 288 287 286 284 283 282 280 277 275 274 273 272 269 266 264 261 259
260 260 261 262 262 263 263 264 265 266 267 268 270 272 274 275 277 279 280 281 283 284 286 287 287 287 287 286 284 283 282 281 278 276 275 275 274 271 267 265 264 263 262
260 261 261 261 261 262 262 262 263 265 266 267 268 270 272 274 276 277 278 280 282 284 285 285 285 284 284 283 283 283 281 280 278 277 275 274 272 270 268 266 265 264 263
262 261 261 261 261 261 261 261 262 263 264 265 267 268 270 271 273 275 277 279 281 282 283 283 283 282 281 281 281 280 279 278 277 275 274 272 271 270 268 267 266 264 263
262 262 261 260 260 259 259 259 260 261 262 263 265 267 268 270 272 274 276 278 279 280 281 280 280 279 279 279 279 278 278 277 275 274 272 271 270 270 269 268 266 265 264
Height
5832 5834 5836 5838 5840 5841 5843 5844 5845 5846 5847 5848 5848 5849 5849 5849 5849 5849 5849 5848 5848 5847 5846 5844 5843 5841 5839 5837 5835 5833 5830 5827 5824 5821 5818 5815 5812 5809 5806 5803 5800 5797 5794
5826 5829 5831 5832 5834 5836 5837 5839 5840 5841 5842 5843 5843 5844 5844 5844 5844 5844 5844 5843 5842 5842 5840 5839 5837 5836 5833 5831 5829 5827 5824 5821 5818 5815 5812 5809 5806 5803 5800 5797 5795 5792 5789
5820 5823 5825 5827 5828 5830 5832 5833 5834 5835 5836 5837 5838 5838 5839 5839 5839 5839 5838 5837 5837 5836 5835 5833 5831 5829 5827 5825 5823 5820 5818 5815 5812 5809 5806 5803 5800 5797 5794 5792 5789 5786 5783
5814 5816 5819 5821 5823 5824 5826 5827 5829 5830 5830 5831 5832 5833 5833 5833 5833 5832 5832 5831 5830 5829 5828 5827 5825 5823 5821 5818 5816 5813 5811 5808 5805 5802 5799 5796 5794 5791 5788 5786 5783 5780 5777
5806 5809 5812 5814 5816 5818 5820 5821 5822 5824 5824 5825 5826 5826 5826 5826 5826 5826 5825 5824 5823 5822 5821 5819 5817 5816 5813 5811 5809 5806 5804 5801 5798 5795 5792 5789 5787 5784 5781 5779 5776 5774 5771
5799 5803 5805 5807 5809 5811 5813 5815 5816 5817 5818 5819 5819 5819 5819 5819 5819 5819 5818 5817 5816 5815 5813 5812 5810 5808 5806 5803 5801 5798 5796 5793 5790 5788 5785 5782 5779 5777 5774 5771 5769 5766 5764
5792 5795 5798 5800 5802 5805 5806 5808 5809 5810 5811 5811 5812 5812 5812 5812 5812 5811 5810 5809 5808 5807 5805 5804 5802 5800 5797 5795 5793 5790 5787 5785 5782 5780 5777 5775 5772 5769 5766 5764 5761 5759 5756
5785 5788 5790 5793 5795 5797 5799 5800 5802 5803 5803 5804 5805 5804 5805 5805 5804 5804 5803 5801 5800 5799 5797 5795 5793 5791 5789 5787 5784 5782 5779 5777 5774 5772 5769 5766 5763 5761 5758 5755 5753 5751 5748
5777 5780 5783 5785 5788 5790 5791 5793 5794 5795 5795 5796 5796 5797 5797 5797 5797 5796 5794 5793 5791 5790 5788 5787 5785 5782 5780 5778 5776 5773 5771 5768 5765 5763 5760 5757 5755 5752 5749 5747 5745 5742 5740
5770 5773 5775 5778 5780 5782 5783 5784 5786 5787 5787 5788 5788 5789 5789 5789 5788 5788 5787 5785 5783 5781 5780 5778 5776 5773 5771 5769 5766 5764 5761 5759 5756 5753 5750 5748 5745 5742 5740 5738 5736 5733 5731
5763 5765 5768 5770 5772 5773 5775 5776 5777 5778 5779 5779 5780 5780 5780 5780 5779 5779 5778 5777 5775 5773 5771 5769 5766 5764 5762 5759 5757 5754 5751 5749 5746 5743 5740 5737 5735 5732 5730 5728 5726 5724 5722
5754 5757 5759 5761 5763 5765 5766 5767 5768 5769 5770 5770 5771 5771 5771 5771 5770 5769 5768 5767 5766 5764 5761 5759 5756 5754 5751 5749 5746 5743 5740 5738 5735 5732 5729 5727 5724 5721 5719 5717 5716 5714 5713
5746 5748 5750 5752 5754 5756 5757 5758 5759 5760 5761 5762 5762 5762 5762 5761 5760 5760 5759 5757 5756 5754 5751 5748 5745 5743 5740 5738 5735 5732 5729 5726 5723 5720 5718 5715 5713 5711 5708 5707 5705 5704 5703
5737 5738 5740 5742 5744 5746 5748 5749 5750 5751 5752 5752 5752 5753 5752 5752 5751 5750 5749 5747 5746 5744 5742 5738 5735 5732 5729 5726 5724 5721 5718 5714 5711 5709 5706 5704 5702 5700 5698 5696 5695 5694 5693
5728 5730 5731 5733 5735 5737 5738 5739 5740 5741 5742 5743 5743 5743 5742 5742 5741 5740 5738 5736 5735 5734 5732 5728 5725 5721 5718 5715 5712 5709 5706 5703 5700 5698 5695 5693 5691 5689 5687 5686 5685 5684 5683
5719 5721 5723 5724 5726 5727 5728 5730 5730 5731 5732 5732 5732 5732 5732 5731 5730 5729 5727 5726 5724 5722 5720 5718 5714 5710 5707 5704 5701 5698 5695 5692 5689 5687 5684 5682 5680 5678 5677 5676 5675 5674 5674
5710 5711 5713 5715 5716 5718 5719 5720 5720 5721 5721 5721 5721 5721 5721 5720 5719 5717 5716 5714 5712 5710 5708 5706 5703 5700 5697 5693 5690 5687 5684 5681 5679 5676 5674 5672 5670 5668 5667 5666 5665 5665 5665
5700 5701 5703 5704 5706 5707 5709 5709 5710 5710 5710 5710 5710 5710 5709 5709 5708 5706 5705 5703 5701 5699 5697 5694 5692 5689 5686 5683 5680 5676 5673 5670 5668 5666 5664 5662 5660 5659 5658 5657 5656 5656 5657
5689 5691 5692 5694 5695 5696 5697 5698 5698 5699 5699 5699 5699 5699 5698 5697 5696 5695 5693 5692 5690 5687 5685 5683 5681 5678 5675 5672 5669 5666 5663 5660 5658 5656 5654 5653 5651 5650 5649 5649 5648 5648 5649
5678 5679 5681 5682 5683 5684 5685 5686 5687 5687 5687 5687 5687 5687 5687 5686 5685 5684 5682 5680 5678 5676 5674 5672 5669 5666 5664 5660 5658 5655 5652 5650 5648 5646 5645 5643 5642 5641 5641 5641 5641 5641 5642
5666 5667 5668 5670 5671 5672 5673 5674 5675 5675 5675 5676 5676 5675 5675 5674 5673 5672 5671 5669 5667 5665 5663 5661 5658 5655 5653 5650 5647 5645 5643 5640 5639 5637 5636 5635 5634 5633 5633 5633 5633 5634 5635
5653 5654 5656 5657 5658 5659 5660 5661 5662 5663 5663 5664 5664 5664 5663 5663 5662 5660 5659 5657 5656 5654 5652 5650 5647 5645 5642 5639 5637 5635 5633 5631 5630 5629 5628 5627 5626 5626 5625 5626 5626 5627 5627
5639 5641 5642 5644 5645 5646 5648 5649 5649 5650 5651 5651 5652 5652 5651 5651 5650 5649 5647 5646 5645 5643 5641 5639 5636 5634 5631 5629 5627 5625 5624 5622 5621 5620 5620 5619 5619 5618 5618 5618 5619 5620 5620
5625 5627 5628 5630 5631 5633 5634 5635 5636 5637 5638 5639 5639 5639 5639 5639 5638 5637 5636 5635 5633 5632 5630 5627 5626 5624 5622 5620 5618 5617 5615 5614 5613 5612 5612 5612 5611 5611 5611 5611 5612 5612 5613
5610 5612 5614 5615 5617 5618 5620 5621 5622 5624 5625 5626 5626 5627 5627 5627 5626 5626 5625 5623 5622 5621 5619 5617 5615 5614 5612 5611 5609 5608 5607 5606 5605 5605 5604 5604 5604 5604 5604 5604 5604 5605 5606
5595 5596 5598 5600 5602 5604 5606 5607 5609 5610 5611 5613 5613 5614 5615 5615 5614 5614 5613 5612 5611 5610 5609 5607 5606 5605 5603 5602 5601 5600 5599 5598 5598 5597 5597 5597 5597 5597 5597 5597 5597 5597 5598